Change the Weather History Date:

Saturday, October 11, 2014

  Actual Average Record
Temperature  
Mean Temperature 45 °F 50 °F  
Max Temperature 60 °F 61 °F 84 °F (1928)
Min Temperature 30 °F 40 °F 23 °F (1967)
Degree Days  
Heating Degree Days 20 15  
Month to date heating degree days 150 142  
Since 1 July heating degree days 333 350  
Cooling Degree Days 0 0  
Month to date cooling degree days 0 0  
Year to date cooling degree days 620 564  
Moisture  
Dew Point 32 °F    
Average Humidity 63    
Maximum Humidity 92    
Minimum Humidity 33    
Precipitation  
Precipitation 0.00 in 0.07 in 0.96 in (1983)
Month to date precipitation 0.80 0.85  
Year to date precipitation 30.45 28.80  
Snow  
Snow 0.00 in 0.00 in 0.10 in (1909)
Month to date snowfall T 0.1  
Since 1 July snowfall T 0.1  
Since 1 September snowfall T 0.1  
Snow Depth 0.00 in    
Sea Level Pressure  
Sea Level Pressure 30.21 in    
Wind  
Wind Speed 3 mph (SW)    
Max Wind Speed 9 mph    
Max Gust Speed 12 mph    
Visibility 10 miles    
Events      
T = Trace of Precipitation, MM = Missing Value Source: NWS Daily Summary

Daily Weather History Graph

Daily Weather History Graph

Search for Another Location

Airport or City:

Trip Planner

Search our weather history database for the weather conditions in past years. The results will help you decide how hot, cold, wet, or windy it might be!

Date:

Astronomy

Oct. 11, 2014 Rise Set
Actual Time 7:06 AM CDT 6:21 PM CDT
Civil Twilight 6:37 AM CDT 6:49 PM CDT
Nautical Twilight 6:04 AM CDT 7:22 PM CDT
Astronomical Twilight 5:31 AM CDT 7:55 PM CDT
Moon 8:43 PM CDT (10/11) 10:34 AM CDT (10/11)
Length of Visible Light 12h 11m
Length of Day
11h 14m
Waning Gibbous, 87% of the Moon is Illuminated
Oct 11
Waning Gibbous
Oct 15
Last Quarter
Oct 23
New
Oct 30
First Quarter
Nov 6
Full

Hourly Weather History & Observations

Time (CDT) Temp. Windchill Dew Point Humidity Pressure Visibility Wind Dir Wind Speed Gust Speed Precip Events Conditions
12:53 AM 33.1 °F - 30.9 °F 92% 30.20 in 10.0 mi Calm Calm - N/A   Clear
1:53 AM 33.1 °F - 30.9 °F 92% 30.22 in 9.0 mi Calm Calm - N/A   Clear
2:53 AM 32.0 °F - 30.0 °F 92% 30.21 in 10.0 mi Calm Calm - N/A   Clear
3:53 AM 30.0 °F - 28.0 °F 92% 30.22 in 10.0 mi Calm Calm - N/A   Clear
4:53 AM 32.0 °F - 28.9 °F 88% 30.22 in 9.0 mi Calm Calm - N/A   Clear
5:53 AM 30.9 °F - 28.9 °F 92% 30.23 in 10.0 mi Calm Calm - N/A   Partly Cloudy
6:53 AM 30.0 °F - 28.0 °F 92% 30.25 in 9.0 mi Calm Calm - N/A   Partly Cloudy
7:53 AM 32.0 °F - 30.0 °F 92% 30.28 in 10.0 mi Calm Calm - N/A   Partly Cloudy
8:53 AM 41.0 °F 39.0 °F 36.0 °F 82% 30.28 in 10.0 mi North 3.5 mph - N/A   Partly Cloudy
9:53 AM 46.0 °F 43.9 °F 37.0 °F 71% 30.29 in 10.0 mi NNE 4.6 mph - N/A   Partly Cloudy
10:53 AM 52.0 °F - 37.0 °F 57% 30.28 in 10.0 mi North 3.5 mph - N/A   Partly Cloudy
11:53 AM 54.0 °F - 34.0 °F 47% 30.27 in 10.0 mi Variable 4.6 mph - N/A   Clear
12:53 PM 55.9 °F - 33.1 °F 42% 30.25 in 10.0 mi WSW 5.8 mph - N/A   Partly Cloudy
1:53 PM 57.9 °F - 30.9 °F 36% 30.22 in 10.0 mi SW 4.6 mph - N/A   Partly Cloudy
2:53 PM 59.0 °F - 30.0 °F 33% 30.21 in 10.0 mi Variable 6.9 mph - N/A   Partly Cloudy
3:53 PM 60.1 °F - 32.0 °F 35% 30.19 in 10.0 mi South 6.9 mph - N/A   Clear
4:53 PM 59.0 °F - 30.9 °F 35% 30.17 in 10.0 mi WSW 3.5 mph - N/A   Clear
5:53 PM 55.9 °F - 32.0 °F 40% 30.17 in 10.0 mi South 6.9 mph - N/A   Clear
6:53 PM 51.1 °F - 35.1 °F 54% 30.17 in 10.0 mi South 3.5 mph - N/A   Clear
7:53 PM 45.0 °F - 35.1 °F 68% 30.17 in 10.0 mi Calm Calm - N/A   Clear
8:53 PM 44.1 °F - 34.0 °F 68% 30.16 in 10.0 mi Calm Calm - N/A   Clear
9:53 PM 42.1 °F - 34.0 °F 73% 30.16 in 10.0 mi Calm Calm - N/A   Clear
10:53 PM 37.0 °F - 33.1 °F 86% 30.16 in 10.0 mi Calm Calm - N/A   Clear
11:53 PM 46.0 °F 41.9 °F 34.0 °F 63% 30.14 in 10.0 mi South 8.1 mph - N/A   Clear